map of TNM home
TNM - Airport
Location
City:  Base Antarctica, King George Island, South Shetland Islands, Magallanes y de la Antártica Chilena, Chile
Name:Tiente Rodolfo Marsh Martin Airport
ICAO:SCRM
IATA:TNM

Details
Type:Airport (Aerodrome, Airfield)
Use:Public/Civil
Latitude:62°11'27"S (-62.190832)
Longitude:58°59'12"W (-58.986666)
Elevation:147 ft (45 m)
Variation:10.78°E (WMM2015 magnetic declination)
-0.05° annual change
Runways:1
Longest:4239 × 128 ft (1292 × 39 m)

Time
Time Zone:UTC-4
Local Time:

Weather
METAR:SCRM 210700Z 26018KT 9999 FEW019 M01/M05 Q0970

Related Locations
Nearby:
Farthest:VHV: 12339 mi / 19858 km
Verkhnevilyujsk (Verkhnevilyuysk) [Verkhnevilyujsk Airport], SA, RU

Find:

   beyond  
but within

Other Information
Maps:
NOTAMs:
Links:
Sources:

  
  • flag of Chile
  • flag of Magallanes y de la Antártica Chilena
  

Sectional Chart

Flight Planning
at skyvector.com

Satellite Image

Google Maps Satellite view

 

Copyright © 2004-2018 Karl L. Swartz. All rights reserved.
The Great Circle Mapper name and logo are trademarks of the Great Circle Mapper.
All other trademarks mentioned herein belong to their respective owners.
Please see credits for attibutions and further copyright information.

  Follow gcmap on Facebook Follow gcmap on Twitter Follow gcmap on Google+ GCmap on LinkedIn

hCard Microformat

Geo Microformat